N0JVW-13 Weather Reports


time (UTC)temp
C
wind
direction
speed
KPH
gust
KPH
rain 1hr
cm
rain 24hr
cm
rain mn
cm
humidity
%
barometer
mb
20260901151008 28 152 0.0 6.4 0.00 0.00 0.00 63 1014.6
20260901150551 28 131 0.0 4.8 0.00 0.00 0.00 64 1014.6
20260901150031 27 150 0.0 4.8 0.00 0.00 0.00 65 1014.7
20260901145510 27 127 0.0 4.8 0.00 0.00 0.00 65 1014.6
20260901145055 27 169 0.0 4.8 0.00 0.00 0.00 66 1014.6
20260901144533 27 127 0.0 4.8 0.00 0.00 0.00 66 1014.7
20260901144016 26 157 0.0 3.2 0.00 0.00 0.00 68 1014.7
20260901143556 26 152 0.0 0.0 0.00 0.00 0.00 68 1014.7
20260901143036 26 152 0.0 0.0 0.00 0.00 0.00 70 1014.7
20260901142517 25 152 0.0 0.0 0.00 0.00 0.00 70 1014.8
20260901142059 25 152 0.0 0.0 0.00 0.00 0.00 71 1014.8
20260901141539 25 152 0.0 0.0 0.00 0.00 0.00 71 1014.8
20260901141019 25 133 0.0 1.6 0.00 0.00 0.00 71 1014.9
20260901140604 25 133 0.0 1.6 0.00 0.00 0.00 71 1014.9
20260901140049 25 141 0.0 1.6 0.00 0.00 0.00 71 1014.9
20260901135522 25 141 0.0 1.6 0.00 0.00 0.00 71 1014.8
20260901135003 25 155 0.0 1.6 0.00 0.00 0.00 71 1014.7
20260901134549 24 155 0.0 1.6 0.00 0.00 0.00 71 1014.8
20260901134025 24 129 0.0 1.6 0.00 0.00 0.00 71 1014.8
20260901133505 23 161 0.0 3.2 0.00 0.00 0.00 72 1014.8
20260901133101 23 161 0.0 3.2 0.00 0.00 0.00 72 1014.8
20260901132528 23 158 0.0 1.6 0.00 0.00 0.00 72 1014.7
20260901132012 23 149 0.0 1.6 0.00 0.00 0.00 72 1014.6
20260901131553 23 155 0.0 1.6 0.00 0.00 0.00 71 1014.6
20260901131030 23 155 0.0 1.6 0.00 0.00 0.00 71 1014.6
20260901130509 23 155 0.0 1.6 0.00 0.00 0.00 71 1014.6
20260901130054 22 155 0.0 1.6 0.00 0.00 0.00 71 1014.6
20260901125527 22 155 0.0 1.6 0.00 0.00 0.00 71 1014.6
20260901125006 22 143 0.0 1.6 0.00 0.00 0.00 71 1014.6
20260901124546 22 145 0.0 1.6 0.00 0.00 0.00 71 1014.6
20260901124025 22 145 0.0 0.0 0.00 0.00 0.00 71 1014.5
20260901123505 22 145 0.0 0.0 0.00 0.00 0.00 70 1014.4
20260901123049 22 147 0.0 0.0 0.00 0.00 0.00 70 1014.4
20260901122528 22 147 0.0 0.0 0.00 0.00 0.00 69 1014.4
20260901122007 22 147 0.0 0.0 0.00 0.00 0.00 69 1014.3
20260901121552 22 147 0.0 0.0 0.00 0.00 0.00 68 1014.3
20260901121027 22 147 0.0 0.0 0.00 0.00 0.00 69 1014.2
20260901120507 22 147 0.0 0.0 0.00 0.00 0.00 70 1014.1
20260901120051 22 147 0.0 0.0 0.00 0.00 0.00 70 1014.1
20260901115530 22 147 0.0 0.0 0.00 0.00 0.00 70 1014.0
20260901115009 22 147 0.0 0.0 0.00 0.00 0.00 70 1014.0
20260901114553 22 147 0.0 1.6 0.00 0.00 0.00 71 1013.9
20260901114032 22 140 0.0 1.6 0.00 0.00 0.00 72 1013.8
20260901113512 22 140 0.0 0.0 0.00 0.00 0.00 72 1013.8
20260901113053 22 140 0.0 0.0 0.00 0.00 0.00 72 1013.8
20260901112532 22 139 0.0 0.0 0.00 0.00 0.00 72 1013.7
20260901112012 22 139 0.0 0.0 0.00 0.00 0.00 72 1013.7
20260901111605 22 140 0.0 0.0 0.00 0.00 0.00 72 1013.7
20260901111034 23 140 0.0 0.0 0.00 0.00 0.00 72 1013.5
20260901110514 23 139 0.0 0.0 0.00 0.00 0.00 71 1013.5
20260901110058 23 140 0.0 0.0 0.00 0.00 0.00 71 1013.5
20260901105538 23 140 0.0 0.0 0.00 0.00 0.00 71 1013.5
20260901105019 23 140 0.0 0.0 0.00 0.00 0.00 71 1013.4
20260901104602 23 139 0.0 0.0 0.00 0.00 0.00 71 1013.3
20260901104039 23 140 0.0 0.0 0.00 0.00 0.00 71 1013.3
20260901103520 23 140 0.0 0.0 0.00 0.00 0.00 71 1013.3
20260901103103 23 140 0.0 1.6 0.00 0.00 0.00 71 1013.4
20260901102543 23 140 0.0 1.6 0.00 0.00 0.00 71 1013.4
20260901102022 23 139 0.0 0.0 0.00 0.00 0.00 70 1013.4
20260901101504 23 140 0.0 0.0 0.00 0.00 0.00 70 1013.3
20260901101046 23 139 0.0 0.0 0.00 0.00 0.00 70 1013.4
20260901100525 23 140 0.0 0.0 0.00 0.00 0.00 70 1013.2
20260901100004 23 140 0.0 0.0 0.00 0.00 0.00 70 1013.1
20260901095548 23 140 0.0 1.6 0.00 0.00 0.00 70 1013.1
20260901095027 23 140 0.0 1.6 0.00 0.00 0.00 70 1013.2
20260901094511 23 143 0.0 0.0 0.00 0.00 0.00 70 1013.1
20260901094050 23 143 0.0 0.0 0.00 0.00 0.00 70 1013.0
20260901093530 23 143 0.0 0.0 0.00 0.00 0.00 70 1013.0
20260901093009 23 143 0.0 0.0 0.00 0.00 0.00 70 1012.9
20260901092552 23 143 0.0 0.0 0.00 0.00 0.00 70 1012.8
20260901092033 23 140 0.0 0.0 0.00 0.00 0.00 70 1012.7
20260901091514 23 140 0.0 1.6 0.00 0.00 0.00 70 1012.7
20260901091056 23 140 0.0 1.6 0.00 0.00 0.00 70 1012.7
20260901090539 23 140 0.0 0.0 0.00 0.00 0.00 70 1012.7
20260901090027 23 140 0.0 0.0 0.00 0.00 0.00 70 1012.6
20260901085559 23 140 0.0 0.0 0.00 0.00 0.00 70 1012.6
20260901085039 23 140 0.0 3.2 0.00 0.00 0.00 70 1012.6
20260901084518 23 140 0.0 3.2 0.00 0.00 0.00 69 1012.6
20260901084101 23 162 0.0 3.2 0.00 0.00 0.00 69 1012.6
20260901083540 23 139 0.0 3.2 0.00 0.00 0.00 69 1012.6
20260901083022 23 157 0.0 3.2 0.00 0.00 0.00 69 1012.7
20260901082605 23 152 0.0 1.6 0.00 0.00 0.00 68 1012.7
20260901082043 23 116 0.0 0.0 0.00 0.00 0.00 68 1012.6
20260901081522 24 158 0.0 0.0 0.00 0.00 0.00 67 1012.6
20260901081002 24 158 0.0 1.6 0.00 0.00 0.00 67 1012.6
20260901080545 24 162 0.0 1.6 0.00 0.00 0.00 67 1012.6
20260901080025 24 148 0.0 1.6 0.00 0.00 0.00 67 1012.5
20260901075504 23 158 0.0 1.6 0.00 0.00 0.00 67 1012.5
20260901075048 23 151 0.0 1.6 0.00 0.00 0.00 68 1012.4
20260901074527 23 160 0.0 1.6 0.00 0.00 0.00 70 1012.5
20260901074008 23 133 0.0 0.0 0.00 0.00 0.00 70 1012.5
20260901073550 23 133 0.0 0.0 0.00 0.00 0.00 69 1012.6
20260901073030 23 133 0.0 0.0 0.00 0.00 0.00 70 1012.6
20260901072509 23 133 0.0 0.0 0.00 0.00 0.00 69 1012.6
20260901072053 23 133 0.0 0.0 0.00 0.00 0.00 69 1012.6
20260901071532 23 133 0.0 0.0 0.00 0.00 0.00 70 1012.6
20260901071012 23 133 0.0 0.0 0.00 0.00 0.00 69 1012.6
20260901070555 23 133 0.0 0.0 0.00 0.00 0.00 69 1012.7
20260901070046 23 133 0.0 0.0 0.00 0.00 0.00 69 1012.7
20260901065515 23 133 0.0 0.0 0.00 0.00 0.00 69 1012.6
20260901065058 23 133 0.0 0.0 0.00 0.00 0.00 69 1012.6
20260901064539 23 133 0.0 0.0 0.00 0.00 0.00 70 1012.7
20260901064020 23 133 0.0 0.0 0.00 0.00 0.00 68 1012.7
20260901063600 24 133 0.0 0.0 0.00 0.00 0.00 68 1012.7
20260901063040 24 133 0.0 0.0 0.00 0.00 0.00 68 1012.7
20260901062520 24 133 0.0 0.0 0.00 0.00 0.00 68 1012.8
20260901062106 24 133 0.0 0.0 0.00 0.00 0.00 69 1012.8
20260901061543 24 133 0.0 0.0 0.00 0.00 0.00 67 1012.8
20260901061022 24 133 0.0 0.0 0.00 0.00 0.00 67 1012.8
20260901060502 24 133 0.0 0.0 0.00 0.00 0.00 66 1012.7
20260901060046 24 133 0.0 0.0 0.00 0.00 0.00 66 1012.7
20260901055524 25 133 0.0 0.0 0.00 0.00 0.00 66 1012.6
20260901055003 25 133 0.0 0.0 0.00 0.00 0.00 65 1012.6
20260901054547 25 133 0.0 0.0 0.00 0.00 0.00 65 1012.5
20260901054027 25 133 0.0 0.0 0.00 0.00 0.00 65 1012.6
20260901053505 25 133 0.0 0.0 0.00 0.00 0.00 66 1012.6
20260901053052 25 133 0.0 0.0 0.00 0.00 0.00 65 1012.5
20260901052531 25 133 0.0 0.0 0.00 0.00 0.00 64 1012.6
20260901052013 25 133 0.0 0.0 0.00 0.00 0.00 64 1012.5
20260901051555 25 133 0.0 0.0 0.00 0.00 0.00 64 1012.5
20260901051032 25 133 0.0 0.0 0.00 0.00 0.00 63 1012.5
20260901050512 25 133 0.0 0.0 0.00 0.00 0.00 63 1012.5
20260901050054 25 133 0.0 0.0 0.00 0.00 0.00 63 1012.5
20260901045533 25 133 0.0 0.0 0.00 0.00 0.00 63 1012.5
20260901045013 25 133 0.0 0.0 0.00 0.00 0.00 63 1012.4
20260901044558 25 133 0.0 0.0 0.00 0.00 0.00 62 1012.4
20260901044036 25 133 0.0 0.0 0.00 0.00 0.00 63 1012.4
20260901043514 26 133 0.0 0.0 0.00 0.00 0.00 62 1012.4
20260901043054 26 133 0.0 0.0 0.00 0.00 0.00 62 1012.4
20260901042533 26 133 0.0 0.0 0.00 0.00 0.00 61 1012.4
20260901042013 26 133 0.0 0.0 0.00 0.00 0.00 61 1012.4
20260901041557 26 133 0.0 0.0 0.00 0.00 0.00 61 1012.4
20260901041036 26 133 0.0 0.0 0.00 0.00 0.00 61 1012.4
20260901040516 26 133 0.0 0.0 0.00 0.00 0.00 61 1012.3
20260901035541 26 133 0.0 0.0 0.00 0.00 0.00 60 1012.3
20260901035020 27 133 0.0 0.0 0.00 0.00 0.00 60 1012.3
20260901034602 27 133 0.0 0.0 0.00 0.00 0.00 59 1012.3
20260901034041 27 133 0.0 0.0 0.00 0.00 0.00 59 1012.3
20260901033521 27 133 0.0 0.0 0.00 0.00 0.00 59 1012.2
20260901033106 27 133 0.0 0.0 0.00 0.00 0.00 59 1012.2
20260901032545 27 133 0.0 0.0 0.00 0.00 0.00 59 1012.2
20260901032023 27 133 0.0 0.0 0.00 0.00 0.00 58 1012.1
20260901031502 28 133 0.0 0.0 0.00 0.00 0.00 58 1012.1
20260901031046 28 133 0.0 0.0 0.00 0.00 0.00 58 1012.1
20260901030525 28 133 0.0 0.0 0.00 0.00 0.00 56 1012.1
20260901030007 28 133 0.0 1.6 0.00 0.00 0.00 56 1012.0
20260901025549 28 133 0.0 1.6 0.00 0.00 0.00 56 1012.0
20260901025032 28 148 0.0 0.0 0.00 0.00 0.00 56 1012.0
20260901024508 28 148 0.0 0.0 0.00 0.00 0.00 55 1012.0
20260901024051 29 148 0.0 0.0 0.00 0.00 0.00 55 1012.0
20260901023531 29 148 0.0 0.0 0.00 0.00 0.00 54 1012.0
20260901023011 29 148 0.0 0.0 0.00 0.00 0.00 54 1011.9
20260901022554 29 148 0.0 0.0 0.00 0.00 0.00 53 1011.9
20260901022031 29 148 0.0 0.0 0.00 0.00 0.00 53 1011.9
20260901021512 30 148 0.0 0.0 0.00 0.00 0.00 53 1011.8
20260901021056 30 148 0.0 0.0 0.00 0.00 0.00 53 1011.7
20260901020533 30 148 0.0 0.0 0.00 0.00 0.00 53 1011.6
20260901020014 30 148 0.0 0.0 0.00 0.00 0.00 53 1011.5
20260901015556 30 148 0.0 1.6 0.00 0.00 0.00 53 1011.6
20260901015035 30 148 0.0 1.6 0.00 0.00 0.00 54 1011.5
20260901014514 30 148 0.0 0.0 0.00 0.00 0.00 54 1011.5
20260901014100 30 148 0.0 0.0 0.00 0.00 0.00 54 1011.4
20260901013537 30 148 0.0 0.0 0.00 0.00 0.00 54 1011.3
20260901013026 30 148 0.0 0.0 0.00 0.00 0.00 54 1011.3
20260901012504 30 148 0.0 0.0 0.00 0.00 0.00 53 1011.2
20260901012048 31 148 0.0 0.0 0.00 0.00 0.00 53 1011.2
20260901011526 31 148 0.0 0.0 0.00 0.00 0.00 54 1011.1
20260901011006 31 148 0.0 0.0 0.00 0.00 0.00 54 1011.1
20260901010549 31 148 0.0 0.0 0.00 0.00 0.00 53 1011.0
20260901010042 31 148 0.0 0.0 0.00 0.00 0.00 52 1011.0
20260901005506 31 148 0.0 0.0 0.00 0.00 0.00 52 1011.0
20260901005050 31 148 0.0 0.0 0.00 0.00 0.00 52 1011.0
20260901004528 32 148 0.0 0.0 0.00 0.00 0.00 52 1011.0
20260901004008 32 148 0.0 0.0 0.00 0.00 0.00 51 1010.9
20260901003551 32 148 0.0 0.0 0.00 0.00 0.00 50 1010.9
20260901003031 32 148 0.0 0.0 0.00 0.00 0.00 50 1010.8
20260901002511 32 148 0.0 0.0 0.00 0.00 0.00 49 1010.9
20260901002054 32 148 0.0 0.0 0.00 0.00 0.00 48 1010.9
20260901001534 32 148 0.0 0.0 0.00 0.00 0.00 47 1010.8
20260901001011 32 148 0.0 0.0 0.00 0.00 0.00 47 1010.8
20260901000556 32 148 0.0 0.0 0.00 0.00 0.00 47 1010.9
20260901000034 33 148 0.0 0.0 0.00 0.00 0.00 47 1010.9
20260831235517 33 148 0.0 0.0 0.00 0.00 0.00 46 1010.9
20260831235102 33 148 0.0 0.0 0.00 0.00 0.00 46 1010.9
20260831234540 33 148 0.0 0.0 0.00 0.00 0.00 46 1010.8
20260831234017 33 148 0.0 0.0 0.00 0.00 0.00 44 1010.8
20260831233601 34 148 0.0 0.0 0.00 0.00 0.00 44 1010.9
20260831233040 34 148 0.0 1.6 0.00 0.00 0.00 44 1010.9
20260831232522 34 148 0.0 1.6 0.00 0.00 0.00 42 1010.8
20260831232103 34 143 0.0 1.6 0.00 0.00 0.00 42 1010.8
20260831231544 35 125 0.0 1.6 0.00 0.00 0.00 41 1010.8
20260831231022 35 125 0.0 1.6 0.00 0.00 0.00 41 1010.8
20260831230604 35 125 0.0 1.6 0.00 0.00 0.00 40 1010.8
20260831230048 35 128 0.0 0.0 0.00 0.00 0.00 41 1010.9
20260831225523 35 128 0.0 1.6 0.00 0.00 0.00 40 1010.8
20260831225003 35 144 0.0 3.2 0.00 0.00 0.00 40 1010.8
20260831224546 35 144 0.0 3.2 0.00 0.00 0.00 39 1010.8
20260831224030 35 143 0.0 3.2 0.00 0.00 0.00 39 1010.8
20260831223505 35 161 0.0 3.2 0.00 0.00 0.00 38 1010.8
20260831223053 35 139 0.0 1.6 0.00 0.00 0.00 39 1010.9
20260831222529 35 120 0.0 4.8 0.00 0.00 0.00 38 1010.9
20260831222008 35 162 0.0 4.8 0.00 0.00 0.00 38 1010.9
20260831221553 35 209 0.0 4.8 0.00 0.00 0.00 38 1010.9
20260831221032 35 165 0.0 4.8 0.00 0.00 0.00 39 1010.9
20260831220510 35 165 0.0 4.8 0.00 0.00 0.00 37 1010.9
20260831220054 35 161 0.0 4.8 0.00 0.00 0.00 38 1011.0
20260831215535 35 144 0.0 3.2 0.00 0.00 0.00 38 1010.9
20260831215019 35 138 0.0 8.0 0.00 0.00 0.00 39 1011.0
20260831214557 35 156 0.0 8.0 0.00 0.00 0.00 38 1011.0
20260831214038 35 142 0.0 1.6 0.00 0.00 0.00 39 1010.9
20260831213514 36 142 0.0 4.8 0.00 0.00 0.00 38 1010.8
20260831213059 36 127 1.6 4.8 0.00 0.00 0.00 37 1010.9
20260831212537 36 127 0.0 4.8 0.00 0.00 0.00 38 1010.9
20260831212017 36 165 0.0 4.8 0.00 0.00 0.00 37 1011.0
20260831211613 36 134 0.0 3.2 0.00 0.00 0.00 39 1010.9
20260831211039 36 176 0.0 4.8 0.00 0.00 0.00 38 1010.9
20260831210522 36 181 0.0 4.8 0.00 0.00 0.00 37 1010.9
20260831210105 36 215 0.0 4.8 0.00 0.00 0.00 36 1010.9
20260831205541 36 122 0.0 4.8 0.00 0.00 0.00 37 1010.9
20260831205020 36 119 0.0 4.8 0.00 0.00 0.00 37 1010.9
20260831204604 36 150 0.0 3.2 0.00 0.00 0.00 37 1011.0
20260831204044 36 83 0.0 6.4 0.00 0.00 0.00 38 1011.0
20260831203522 36 83 0.0 6.4 0.00 0.00 0.00 37 1011.0
20260831203009 36 133 0.0 3.2 0.00 0.00 0.00 38 1011.1
20260831202546 36 133 0.0 8.0 0.00 0.00 0.00 38 1011.1
20260831202028 36 169 0.0 8.0 0.00 0.00 0.00 37 1011.2
20260831201505 36 132 0.0 6.4 0.00 0.00 0.00 38 1011.2
20260831201052 36 132 0.0 4.8 0.00 0.00 0.00 39 1011.3
20260831200527 36 116 0.0 9.7 0.00 0.00 0.00 37 1011.2
20260831200016 36 116 1.6 9.7 0.00 0.00 0.00 38 1011.2
20260831195552 36 124 1.6 4.8 0.00 0.00 0.00 40 1011.2
20260831195028 35 148 0.0 4.8 0.00 0.00 0.00 39 1011.2
20260831194508 35 148 1.6 4.8 0.00 0.00 0.00 40 1011.2
20260831194052 35 158 0.0 6.4 0.00 0.00 0.00 40 1011.2
20260831193530 35 129 1.6 6.4 0.00 0.00 0.00 40 1011.3
20260831193011 35 330 0.0 3.2 0.00 0.00 0.00 38 1011.4
20260831192554 35 330 0.0 3.2 0.00 0.00 0.00 40 1011.4
20260831192034 35 330 0.0 4.8 0.00 0.00 0.00 40 1011.4
20260831191513 35 330 0.0 4.8 0.00 0.00 0.00 41 1011.4
20260831191059 35 331 0.0 4.8 0.00 0.00 0.00 41 1011.4
20260831190539 35 331 0.0 4.8 0.00 0.00 0.00 40 1011.5
20260831190017 35 330 0.0 4.8 0.00 0.00 0.00 39 1011.6
20260831185600 35 330 0.0 3.2 0.00 0.00 0.00 41 1011.5
20260831185041 35 330 0.0 4.8 0.00 0.00 0.00 41 1011.5
20260831184519 35 330 0.0 4.8 0.00 0.00 0.00 41 1011.6
20260831184104 35 330 0.0 3.2 0.00 0.00 0.00 40 1011.7
20260831183542 35 330 0.0 4.8 0.00 0.00 0.00 41 1011.8
20260831183022 35 330 0.0 4.8 0.00 0.00 0.00 40 1011.8
20260831182502 35 330 0.0 4.8 0.00 0.00 0.00 43 1011.9
20260831182046 35 330 0.0 4.8 0.00 0.00 0.00 41 1011.9
20260831181527 34 330 0.0 4.8 0.00 0.00 0.00 41 1011.9
20260831181005 34 330 1.6 4.8 0.00 0.00 0.00 42 1012.0
20260831180548 34 330 0.0 4.8 0.00 0.00 0.00 45 1012.0
20260831180027 33 330 0.0 4.8 0.00 0.00 0.00 43 1012.2
20260831175506 33 330 0.0 4.8 0.00 0.00 0.00 43 1012.1
20260831175049 33 211 0.0 3.2 0.00 0.00 0.00 46 1012.2
20260831174536 33 137 0.0 6.4 0.00 0.00 0.00 48 1012.2
20260831174011 33 169 1.6 6.4 0.00 0.00 0.00 49 1012.2
20260831173554 33 224 0.0 4.8 0.00 0.00 0.00 50 1012.3
20260831173032 32 224 0.0 4.8 0.00 0.00 0.00 52 1012.4
20260831172510 32 227 0.0 8.0 0.00 0.00 0.00 51 1012.5
20260831172053 32 107 0.0 8.0 0.00 0.00 0.00 51 1012.7
20260831171536 32 239 0.0 3.2 0.00 0.00 0.00 51 1012.6
20260831171013 32 239 0.0 3.2 0.00 0.00 0.00 51 1012.7
20260831170557 31 239 0.0 3.2 0.00 0.00 0.00 51 1012.8
20260831170037 31 264 0.0 3.2 0.00 0.00 0.00 51 1012.8
20260831165517 31 264 0.0 3.2 0.00 0.00 0.00 51 1012.9
20260831165101 31 264 0.0 4.8 0.00 0.00 0.00 54 1012.9
20260831164539 31 264 0.0 4.8 0.00 0.00 0.00 53 1012.9
20260831164019 31 241 0.0 4.8 0.00 0.00 0.00 54 1013.0
20260831163604 31 285 0.0 3.2 0.00 0.00 0.00 54 1013.0
20260831163042 31 285 0.0 4.8 0.00 0.00 0.00 53 1012.9
20260831162524 30 285 0.0 6.4 0.00 0.00 0.00 52 1013.0
20260831162000 30 325 0.0 6.4 0.00 0.00 0.00 56 1012.9
20260831161549 30 257 0.0 1.6 0.00 0.00 0.00 55 1013.0
20260831161024 30 257 0.0 3.2 0.00 0.00 0.00 55 1013.0
20260831160502 30 257 0.0 3.2 0.00 0.00 0.00 54 1012.9
20260831160046 30 163 0.0 3.2 0.00 0.00 0.00 54 1012.9
20260831155526 30 165 0.0 3.2 0.00 0.00 0.00 56 1013.0
20260831155006 29 254 0.0 1.6 0.00 0.00 0.00 56 1012.9
20260831154553 29 254 0.0 1.6 0.00 0.00 0.00 57 1012.9
20260831154029 29 153 0.0 1.6 0.00 0.00 0.00 58 1013.0
20260831153506 28 274 0.0 1.6 0.00 0.00 0.00 59 1012.9
20260831153053 28 127 0.0 1.6 0.00 0.00 0.00 60 1013.0
20260831152531 28 110 0.0 4.8 0.00 0.00 0.00 59 1013.1
20260831152009 28 110 0.0 4.8 0.00 0.00 0.00 61 1013.0
20260831151558 28 137 0.0 3.2 0.00 0.00 0.00 63 1013.1